This demonstration page uses our WeatherBlox Daily Observations layout. Learn more.

Left ArrowRight Arrow

Hourly Observations for September 6, 2022

Temp ( °F °C ) Dew Point ( °F °C ) Humidity (%) Winds ( mph kmh ) Pressure ( in mb ) Visibility ( mi km ) Precip ( " mm )
12:55 am 00:55 Clear 66 19 61 16.2 84 84 ESE 5 7 30.06 1018 10 16 0.00 0.00
1:55 am 01:55 Clear 66 18.8 62 16.4 86 86 ESE 3 6 30.06 1018 10 16 0.00 0.00
2:55 am 02:55 Clear 65 18.3 62 16.4 89 89 Calm 30.06 1018 10 16 0.00 0.00
3:55 am 03:55 Clear 65 18.3 62 16.6 90 90 Calm 30.05 1018 10 16 0.00 0.00
4:55 am 04:55 undefined 65 18.2 62 16.9 92 92 ESE 3 6 30.07 1018 10 16 0.00 0.00
5:55 am 05:55 Clear 64 17.8 62 16.5 92 92 SE 5 7 30.08 1019 10 16 0.00 0.00
6:55 am 06:55 Clear 64 17.5 62 16.5 94 94 Calm 30.11 1020 8 13 0.00 0.00
7:55 am 07:55 Sunny 64 18 62 16.7 92 92 ESE 6 9 30.11 1020 9 14 0.00 0.00
8:55 am 08:55 Mostly Sunny 67 19.7 62 16.9 84 84 SSE 8 13 30.12 1020 10 16 0.00 0.00
9:55 am 09:55 Sunny 73 22.5 64 18 76 76 SSE 9 15 30.11 1020 10 16 0.00 0.00
10:55 am 10:55 Sunny 77 25.1 66 19 69 69 SE 10 17 30.07 1018 10 16 0.00 0.00
11:55 am 11:55 Sunny 80 26.8 65 18.1 59 59 S 13 20 30.10 1019 10 16 0.00 0.00
12:55 pm 12:55 Sunny 84 29 64 17.5 50 50 S 14 22 30.09 1019 10 16 0.00 0.00
1:55 pm 13:55 Sunny 85 29.7 65 18.4 51 51 SSE 15 24 30.07 1018 10 16 0.00 0.00
2:55 pm 14:55 Sunny 87 30.5 67 19.2 51 51 SE 13 20 30.07 1018 10 16 0.00 0.00
3:55 pm 15:55 Sunny 87 30.3 66 18.7 50 50 SE 15 24 30.06 1018 10 16 0.00 0.00
4:55 pm 16:55 Sunny 87 30.4 66 18.8 50 50 SE 16 26 30.06 1018 10 16 0.00 0.00
5:55 pm 17:55 Sunny 85 29.4 66 18.8 53 53 ESE 13 20 30.07 1018 10 16 0.00 0.00
6:55 pm 18:55 Sunny 82 27.9 66 18.8 58 58 ESE 14 22 30.07 1018 10 16 0.00 0.00
7:55 pm 19:55 undefined 79 26.1 66 19 65 65 E 6 9 30.09 1019 10 16 0.00 0.00
8:55 pm 20:55 Clear 76 24.4 66 18.8 71 71 E 5 7 30.12 1020 10 16 0.00 0.00
9:55 pm 21:55 Clear 74 23.5 65 18.4 73 73 E 5 7 30.14 1021 10 16 0.00 0.00
9:56 pm 21:56 Clear 73 23 66 19 78 78 SE 5 7 30.10 1019 10 16 0.00 0.00

Powered by AerisWeather